Terminal Aerodrome Forecast
Issued by NWS Pittsburgh, PA

Home | Current Version | Previous Version | Text Only | Print | Product List | Glossary On
Versions: 1 2 3 4 5 6 7 8 9 10 11 12 13 14 15 16 17 18 19 20 21 22 23 24 25 26 27 28
063
FTUS41 KPBZ 181531 AAB
TAFPIT
TAF AMD
KPIT 181531Z 1816/1918 19010KT 2SM SHRA OVC035 WS020/22040KT
      TEMPO 1816/1819 4SM -SHRA BR
     FM181900 19010G20KT 4SM -SHRA OVC015
     FM182100 18012G22KT P6SM -SHRA OVC025
     FM190100 20014G28KT 3SM SHRA OVC015
     FM190400 28020G35KT 5SM -SHRA OVC015
     FM190900 28020G30KT 5SM -SHRASN OVC020
     FM191200 28015G25KT P6SM VCSH BKN025=

USA.gov is the U.S. government's official web portal to all federal, state and local government web resources and services.